"datetime","temp","dp","rain_mm","uv","solar","mb","wind_mph","gust_mph","windchill","rh"
"2013-12-15 00:00:00",9.5,9.2,0.0,0.0,0,1018.4,3,8,"",98
"2013-12-15 00:01:00",9.5,9.2,0.0,0.0,0,1018.5,3,4,"",98
"2013-12-15 00:02:00",9.5,9.2,0.0,0.0,0,1018.5,1,3,"",98
"2013-12-15 00:03:00",9.5,9.2,0.0,0.0,0,1018.5,1,4,"",98
"2013-12-15 00:04:00",9.5,9.2,0.0,0.0,0,1018.6,3,15,"",98
"2013-12-15 00:05:00",9.5,9.2,0.0,0.0,0,1018.5,4,4,"",98
"2013-12-15 00:06:00",9.5,9.2,0.0,0.0,0,1018.5,3,6,"",98
"2013-12-15 00:07:00",9.5,9.2,0.0,0.0,0,1018.4,3,6,"",98
"2013-12-15 00:08:00",9.5,9.2,0.0,0.0,0,1018.4,1,3,"",98
"2013-12-15 00:09:00",9.5,9.2,0.0,0.0,0,1018.4,3,12,"",98
"2013-12-15 00:10:00",9.5,9.2,0.0,0.0,0,1018.3,4,4,"",98
"2013-12-15 00:11:00",9.5,9.2,0.0,0.0,0,1018.4,3,4,"",98
"2013-12-15 00:12:00",9.5,9.2,0.0,0.0,0,1018.4,1,3,"",98
"2013-12-15 00:13:00",9.5,9.2,0.0,0.0,0,1018.4,1,12,"",98
"2013-12-15 00:14:00",9.6,9.3,0.0,0.0,0,1018.4,4,4,"",98
"2013-12-15 00:15:00",9.6,9.3,0.0,0.0,0,1018.5,3,10,"",98
"2013-12-15 00:16:00",9.6,9.3,0.0,0.0,0,1018.5,3,8,"",98
"2013-12-15 00:17:00",9.6,9.3,0.0,0.0,0,1018.5,1,3,"",98
"2013-12-15 00:18:00",9.6,9.3,0.0,0.0,0,1018.5,1,3,"",98
"2013-12-15 00:19:00",9.6,9.3,0.0,0.0,0,1018.6,1,1,"",98
"2013-12-15 00:20:00",9.6,9.3,0.0,0.0,0,1018.6,1,4,"",98
"2013-12-15 00:21:00",9.6,9.3,0.0,0.0,0,1018.6,3,4,"",98
"2013-12-15 00:22:00",9.6,9.3,0.0,0.0,0,1018.6,3,4,"",98
"2013-12-15 00:23:00",9.6,9.3,0.0,0.0,0,1018.6,1,3,"",98
"2013-12-15 00:24:00",9.6,9.3,0.0,0.0,0,1018.7,1,10,"",98
"2013-12-15 00:25:00",9.6,9.3,0.2,0.0,0,1018.7,3,10,"",98
"2013-12-15 00:26:00",9.6,9.3,0.2,0.0,0,1018.6,3,6,"",98
"2013-12-15 00:27:00",9.6,9.3,0.2,0.0,0,1018.6,3,6,"",98
"2013-12-15 00:28:00",9.6,9.3,0.2,0.0,0,1018.7,3,6,"",98
"2013-12-15 00:29:00",9.6,9.3,0.2,0.0,0,1018.6,3,8,"",98
"2013-12-15 00:30:00",9.6,9.3,0.2,0.0,0,1018.6,4,6,"",98
"2013-12-15 00:31:00",9.6,9.3,0.2,0.0,0,1018.6,3,4,"",98
"2013-12-15 00:32:00",9.6,9.3,0.2,0.0,0,1018.6,3,6,"",98
"2013-12-15 00:33:00",9.6,9.3,0.2,0.0,0,1018.5,4,6,"",98
"2013-12-15 00:34:00",9.6,9.3,0.2,0.0,0,1018.4,3,4,"",98
"2013-12-15 00:35:00",9.6,9.3,0.2,0.0,0,1018.4,1,3,"",98
"2013-12-15 00:36:00",9.6,9.3,0.2,0.0,0,1018.5,1,3,"",98
"2013-12-15 00:37:00",9.6,9.3,0.2,0.0,0,1018.5,1,3,"",98
"2013-12-15 00:38:00",9.6,9.3,0.2,0.0,0,1018.5,1,1,"",98
"2013-12-15 00:39:00",9.7,9.4,0.2,0.0,0,1018.5,1,8,"",98
"2013-12-15 00:40:00",9.7,9.4,0.2,0.0,0,1018.5,3,4,"",98
"2013-12-15 00:41:00",9.7,9.4,0.2,0.0,0,1018.5,3,4,"",98
"2013-12-15 00:42:00",9.7,9.4,0.2,0.0,0,1018.5,3,4,"",98
"2013-12-15 00:43:00",9.7,9.4,0.2,0.0,0,1018.5,1,4,"",98
"2013-12-15 00:44:00",9.7,9.4,0.2,0.0,0,1018.5,1,4,"",98
"2013-12-15 00:45:00",9.7,9.4,0.2,0.0,0,1018.5,3,10,"",98
"2013-12-15 00:46:00",9.7,9.4,0.2,0.0,0,1018.6,3,4,"",98
"2013-12-15 00:47:00",9.7,9.4,0.2,0.0,0,1018.6,1,3,"",98
"2013-12-15 00:48:00",9.7,9.4,0.2,0.0,0,1018.6,1,6,"",98
"2013-12-15 00:49:00",9.7,9.4,0.2,0.0,0,1018.6,3,6,"",98
"2013-12-15 00:50:00",9.7,9.4,0.2,0.0,0,1018.5,1,3,"",98
"2013-12-15 00:51:00",9.7,9.4,0.2,0.0,0,1018.6,1,12,"",98
"2013-12-15 00:52:00",9.7,9.4,0.2,0.0,0,1018.6,4,12,"",98
"2013-12-15 00:53:00",9.7,9.6,0.2,0.0,0,1018.6,3,4,"",99
"2013-12-15 00:54:00",9.7,9.6,0.2,0.0,0,1018.5,1,3,"",99
"2013-12-15 00:55:00",9.7,9.6,0.2,0.0,0,1018.6,1,4,"",99
"2013-12-15 00:56:00",9.8,9.6,0.2,0.0,0,1018.5,3,8,"",99
"2013-12-15 00:57:00",9.8,9.6,0.2,0.0,0,1018.5,3,4,"",99
"2013-12-15 00:58:00",9.8,9.6,0.2,0.0,0,1018.5,3,9,"",99
"2013-12-15 00:59:00",9.8,9.6,0.2,0.0,0,1018.6,3,3,"",99
"2013-12-15 01:00:00",9.8,9.6,0.2,0.0,0,1018.6,1,4,"",99
"2013-12-15 01:01:00",9.8,9.7,0.2,0.0,0,1018.6,1,4,"",99
"2013-12-15 01:02:00",9.8,9.7,0.2,0.0,0,1018.6,1,4,"",99
"2013-12-15 01:03:00",9.8,9.7,0.2,0.0,0,1018.7,1,3,"",99
"2013-12-15 01:04:00",9.8,9.7,0.2,0.0,0,1018.7,1,1,"",99
"2013-12-15 01:05:00",9.8,9.7,0.2,0.0,0,1018.7,1,4,"",99
"2013-12-15 01:06:00",9.8,9.7,0.2,0.0,0,1018.7,1,4,"",99
"2013-12-15 01:07:00",9.8,9.7,0.2,0.0,0,1018.8,1,3,"",99
"2013-12-15 01:08:00",9.8,9.7,0.2,0.0,0,1018.8,1,4,"",99
"2013-12-15 01:09:00",9.9,9.7,0.2,0.0,0,1018.9,1,3,"",99
"2013-12-15 01:10:00",9.9,9.7,0.2,0.0,0,1018.9,1,4,"",99
"2013-12-15 01:11:00",9.9,9.7,0.2,0.0,0,1019.0,1,3,"",99
"2013-12-15 01:12:00",9.9,9.7,0.2,0.0,0,1018.9,1,3,"",99
"2013-12-15 01:13:00",9.9,9.7,0.2,0.0,0,1018.9,0,3,"",99
"2013-12-15 01:14:00",9.9,9.7,0.2,0.0,0,1019.0,1,12,"",99
"2013-12-15 01:15:00",9.9,9.8,0.2,0.0,0,1019.0,3,3,"",99
"2013-12-15 01:16:00",9.9,9.8,0.2,0.0,0,1019.1,1,3,"",99
"2013-12-15 01:17:00",9.9,9.8,0.2,0.0,0,1019.0,1,1,"",99
"2013-12-15 01:18:00",9.9,9.8,0.2,0.0,0,1019.1,1,3,"",99
"2013-12-15 01:19:00",9.9,9.8,0.2,0.0,0,1019.0,1,4,"",99
"2013-12-15 01:20:00",9.9,9.8,0.2,0.0,0,1019.1,1,3,"",99
"2013-12-15 01:21:00",9.9,9.8,0.2,0.0,0,1019.0,1,3,"",99
"2013-12-15 01:22:00",9.9,9.8,0.2,0.0,0,1019.1,1,3,"",99
"2013-12-15 01:23:00",10.0,9.8,0.2,0.0,0,1019.1,1,3,"",99
"2013-12-15 01:24:00",10.0,9.8,0.2,0.0,0,1019.1,0,1,"",99
"2013-12-15 01:25:00",10.0,9.9,0.2,0.0,0,1019.1,0,1,"",99
"2013-12-15 01:26:00",10.0,9.9,0.2,0.0,0,1019.1,1,1,"",99
"2013-12-15 01:27:00",10.0,9.9,0.2,0.0,0,1019.1,1,6,"",99
"2013-12-15 01:28:00",10.0,9.9,0.2,0.0,0,1019.2,3,4,"",99
"2013-12-15 01:29:00",10.0,9.9,0.2,0.0,0,1019.1,1,3,"",99
"2013-12-15 01:30:00",10.0,9.9,0.2,0.0,0,1019.1,1,4,"",99
"2013-12-15 01:31:00",10.0,9.9,0.2,0.0,0,1019.1,1,4,"",99
"2013-12-15 01:32:00",10.1,9.9,0.2,0.0,0,1019.1,1,4,"",99
"2013-12-15 01:33:00",10.1,9.9,0.2,0.0,0,1019.1,1,3,"",99
"2013-12-15 01:34:00",10.1,9.9,0.2,0.0,0,1019.0,1,3,"",99
"2013-12-15 01:35:00",10.1,9.9,0.2,0.0,0,1019.0,0,3,"",99
"2013-12-15 01:36:00",10.1,9.9,0.2,0.0,0,1019.1,1,4,"",99
"2013-12-15 01:37:00",10.1,9.9,0.2,0.0,0,1019.1,1,3,"",99
"2013-12-15 01:38:00",10.1,9.9,0.2,0.0,0,1019.1,1,4,"",99
"2013-12-15 01:39:00",10.1,10.0,0.2,0.0,0,1019.0,1,4,"",99
"2013-12-15 01:40:00",10.1,10.0,0.2,0.0,0,1019.1,1,3,"",99
"2013-12-15 01:41:00",10.1,10.0,0.2,0.0,0,1019.0,0,1,"",99
"2013-12-15 01:42:00",10.1,10.0,0.2,0.0,0,1019.0,1,4,"",99
"2013-12-15 01:43:00",10.1,10.0,0.2,0.0,0,1019.0,4,6,"",99
"2013-12-15 01:44:00",10.2,10.0,0.2,0.0,0,1019.0,1,1,"",99
"2013-12-15 01:45:00",10.2,10.0,0.2,0.0,0,1019.1,1,4,"",99
"2013-12-15 01:46:00",10.2,10.0,0.2,0.0,0,1019.1,1,3,"",99
"2013-12-15 01:47:00",10.2,10.0,0.2,0.0,0,1019.1,0,4,"",99
"2013-12-15 01:48:00",10.2,10.0,0.2,0.0,0,1019.0,1,4,"",99
"2013-12-15 01:49:00",10.2,10.0,0.2,0.0,0,1019.0,1,1,"",99
"2013-12-15 01:50:00",10.2,10.1,0.2,0.0,0,1018.9,1,4,"",99
"2013-12-15 01:51:00",10.2,10.1,0.2,0.0,0,1019.0,1,3,"",99
"2013-12-15 01:52:00",10.2,10.1,0.2,0.0,0,1019.0,1,1,"",99
"2013-12-15 01:53:00",10.2,10.1,0.2,0.0,0,1018.9,1,4,"",99
"2013-12-15 01:54:00",10.2,10.1,0.2,0.0,0,1018.9,1,4,"",99
"2013-12-15 01:55:00",10.2,10.1,0.2,0.0,0,1019.0,1,3,"",99
"2013-12-15 01:56:00",10.2,10.1,0.2,0.0,0,1018.9,1,4,"",99
"2013-12-15 01:57:00",10.2,10.1,0.2,0.0,0,1019.0,3,4,"",99
"2013-12-15 01:58:00",10.2,10.1,0.2,0.0,0,1018.9,1,1,"",99
"2013-12-15 01:59:00",10.3,10.1,0.2,0.0,0,1018.8,1,1,"",99
"2013-12-15 02:00:00",10.3,10.1,0.2,0.0,0,1018.8,0,1,"",99
"2013-12-15 02:01:00",10.3,10.1,0.2,0.0,0,1018.9,0,9,"",99
"2013-12-15 02:02:00",10.3,10.1,0.2,0.0,0,1019.0,1,3,"",99
"2013-12-15 02:03:00",10.3,10.1,0.2,0.0,0,1019.2,1,3,"",99
"2013-12-15 02:04:00",10.3,10.1,0.2,0.0,0,1019.2,0,1,"",99
"2013-12-15 02:05:00",10.3,10.1,0.2,0.0,0,1019.3,1,3,"",99
"2013-12-15 02:06:00",10.3,10.1,0.2,0.0,0,1019.3,1,4,"",99
"2013-12-15 02:07:00",10.3,10.1,0.2,0.0,0,1019.3,1,1,"",99
"2013-12-15 02:08:00",10.3,10.1,0.2,0.0,0,1019.3,1,3,"",99
"2013-12-15 02:09:00",10.3,10.1,0.2,0.0,0,1019.3,0,1,"",99
"2013-12-15 02:10:00",10.3,10.1,0.2,0.0,0,1019.4,0,1,"",99
"2013-12-15 02:11:00",10.3,10.1,0.2,0.0,0,1019.4,0,1,"",99
"2013-12-15 02:12:00",10.3,10.1,0.2,0.0,0,1019.4,1,8,"",99
"2013-12-15 02:13:00",10.3,10.1,0.2,0.0,0,1019.4,1,4,"",99
"2013-12-15 02:14:00",10.3,10.1,0.2,0.0,0,1019.4,1,1,"",99
"2013-12-15 02:15:00",10.3,10.1,0.2,0.0,0,1019.5,0,3,"",99
"2013-12-15 02:16:00",10.3,10.1,0.2,0.0,0,1019.4,1,4,"",99
"2013-12-15 02:17:00",10.3,10.2,0.2,0.0,0,1019.4,1,1,"",99
"2013-12-15 02:18:00",10.3,10.2,0.2,0.0,0,1019.4,1,1,"",99
"2013-12-15 02:19:00",10.3,10.2,0.2,0.0,0,1019.4,0,1,"",99
"2013-12-15 02:20:00",10.3,10.2,0.2,0.0,0,1019.4,1,1,"",99
"2013-12-15 02:21:00",10.3,10.2,0.2,0.0,0,1019.5,1,1,"",99
"2013-12-15 02:22:00",10.3,10.2,0.2,0.0,0,1019.5,1,1,"",99
"2013-12-15 02:23:00",10.3,10.2,0.2,0.0,0,1019.5,1,4,"",99
"2013-12-15 02:24:00",10.3,10.1,0.2,0.0,0,1019.5,1,3,"",99
"2013-12-15 02:25:00",10.3,10.2,0.2,0.0,0,1019.6,1,4,"",99
"2013-12-15 02:26:00",10.3,10.2,0.2,0.0,0,1019.6,1,3,"",99
"2013-12-15 02:27:00",10.3,10.2,0.2,0.0,0,1019.6,1,1,"",99
"2013-12-15 02:28:00",10.3,10.2,0.2,0.0,0,1019.6,0,3,"",99
"2013-12-15 02:29:00",10.3,10.2,0.2,0.0,0,1019.4,1,3,"",99
"2013-12-15 02:30:00",10.3,10.2,0.2,0.0,0,1019.4,1,4,"",99
"2013-12-15 02:31:00",10.3,10.2,0.2,0.0,0,1019.3,3,4,"",99
"2013-12-15 02:32:00",10.3,10.2,0.2,0.0,0,1019.2,1,4,"",99
"2013-12-15 02:33:00",10.3,10.2,0.2,0.0,0,1019.2,1,4,"",99
"2013-12-15 02:34:00",10.3,10.2,0.2,0.0,0,1019.2,0,1,"",99
"2013-12-15 02:35:00",10.4,10.2,0.2,0.0,0,1019.2,0,3,"",99
"2013-12-15 02:36:00",10.4,10.2,0.2,0.0,0,1019.2,1,4,"",99
"2013-12-15 02:37:00",10.4,10.2,0.2,0.0,0,1019.3,3,4,"",99
"2013-12-15 02:38:00",10.4,10.2,0.2,0.0,0,1019.3,3,4,"",99
"2013-12-15 02:39:00",10.4,10.2,0.2,0.0,0,1019.3,1,4,"",99
"2013-12-15 02:40:00",10.4,10.2,0.2,0.0,0,1019.3,1,1,"",99
"2013-12-15 02:41:00",10.4,10.2,0.2,0.0,0,1019.4,0,1,"",99
"2013-12-15 02:42:00",10.4,10.2,0.2,0.0,0,1019.4,1,10,"",99
"2013-12-15 02:43:00",10.4,10.2,0.2,0.0,0,1019.4,3,4,"",99
"2013-12-15 02:44:00",10.4,10.2,0.2,0.0,0,1019.4,1,1,"",99
"2013-12-15 02:45:00",10.4,10.2,0.2,0.0,0,1019.4,0,1,"",99
"2013-12-15 02:46:00",10.4,10.2,0.2,0.0,0,1019.4,0,1,"",99
"2013-12-15 02:47:00",10.4,10.2,0.2,0.0,0,1019.4,0,1,"",99
"2013-12-15 02:48:00",10.4,10.2,0.2,0.0,0,1019.4,1,3,"",99
"2013-12-15 02:49:00",10.4,10.2,0.2,0.0,0,1019.4,3,4,"",99
"2013-12-15 02:50:00",10.4,10.2,0.2,0.0,0,1019.4,1,1,"",99
"2013-12-15 02:51:00",10.4,10.2,0.2,0.0,0,1019.3,1,3,"",99
"2013-12-15 02:52:00",10.4,10.2,0.2,0.0,0,1019.3,1,3,"",99
"2013-12-15 02:53:00",10.4,10.2,0.2,0.0,0,1019.4,1,3,"",99
"2013-12-15 02:54:00",10.3,10.2,0.2,0.0,0,1019.4,0,1,"",99
"2013-12-15 02:55:00",10.3,10.2,0.2,0.0,0,1019.4,0,0,"",99
"2013-12-15 02:56:00",10.3,10.2,0.2,0.0,0,1019.4,0,1,"",99
"2013-12-15 02:57:00",10.3,10.2,0.2,0.0,0,1019.4,0,4,"",99
"2013-12-15 02:58:00",10.3,10.2,0.2,0.0,0,1019.4,1,4,"",99
"2013-12-15 02:59:00",10.3,10.2,0.2,0.0,0,1019.4,1,3,"",99
"2013-12-15 03:00:00",10.3,10.1,0.2,0.0,0,1019.4,1,3,"",99
"2013-12-15 03:01:00",10.3,10.1,0.2,0.0,0,1019.4,0,0,"",99
"2013-12-15 03:02:00",10.3,10.1,0.2,0.0,0,1019.4,0,1,"",99
"2013-12-15 03:03:00",10.3,10.1,0.2,0.0,0,1019.4,0,1,"",99
"2013-12-15 03:04:00",10.3,10.1,0.2,0.0,0,1019.5,0,1,"",99
"2013-12-15 03:05:00",10.3,10.1,0.2,0.0,0,1019.5,0,1,"",99
"2013-12-15 03:06:00",10.3,10.1,0.2,0.0,0,1019.5,0,0,"",99
"2013-12-15 03:07:00",10.3,10.1,0.2,0.0,0,1019.6,0,0,"",99
"2013-12-15 03:08:00",10.2,10.1,0.2,0.0,0,1019.6,0,1,"",99
"2013-12-15 03:09:00",10.2,10.1,0.2,0.0,0,1019.6,0,1,"",99
"2013-12-15 03:10:00",10.2,10.1,0.2,0.0,0,1019.7,0,3,"",99
"2013-12-15 03:11:00",10.2,10.1,0.2,0.0,0,1019.7,1,8,"",99
"2013-12-15 03:12:00",10.2,10.0,0.2,0.0,0,1019.8,3,4,"",99
"2013-12-15 03:13:00",10.2,10.0,0.2,0.0,0,1019.9,0,1,"",99
"2013-12-15 03:14:00",10.2,10.0,0.2,0.0,0,1019.9,0,1,"",99
"2013-12-15 03:15:00",10.2,10.0,0.2,0.0,0,1020.0,0,1,"",99
"2013-12-15 03:16:00",10.2,10.0,0.2,0.0,0,1020.0,0,3,"",99
"2013-12-15 03:17:00",10.2,10.0,0.2,0.0,0,1020.1,1,3,"",99
"2013-12-15 03:18:00",10.2,10.0,0.2,0.0,0,1020.0,0,1,"",99
"2013-12-15 03:19:00",10.2,10.0,0.2,0.0,0,1020.1,0,1,"",99
"2013-12-15 03:20:00",10.2,10.0,0.2,0.0,0,1020.1,0,1,"",99
"2013-12-15 03:21:00",10.2,10.0,0.2,0.0,0,1020.2,0,1,"",99
"2013-12-15 03:22:00",10.2,10.0,0.2,0.0,0,1020.2,0,1,"",99
"2013-12-15 03:23:00",10.2,10.0,0.2,0.0,0,1020.3,0,1,"",99
"2013-12-15 03:24:00",10.2,10.0,0.2,0.0,0,1020.4,0,1,"",99
"2013-12-15 03:25:00",10.1,10.0,0.2,0.0,0,1020.4,0,1,"",99
"2013-12-15 03:26:00",10.2,10.0,0.2,0.0,0,1020.4,0,3,"",99
"2013-12-15 03:27:00",10.2,10.0,0.2,0.0,0,1020.4,1,3,"",99
"2013-12-15 03:28:00",10.1,10.0,0.2,0.0,0,1020.4,1,3,"",99
"2013-12-15 03:29:00",10.1,10.0,0.2,0.0,0,1020.4,1,1,"",99
"2013-12-15 03:30:00",10.1,10.0,0.2,0.0,0,1020.4,0,1,"",99
"2013-12-15 03:31:00",10.1,10.0,0.2,0.0,0,1020.4,0,1,"",99
"2013-12-15 03:32:00",10.1,10.0,0.2,0.0,0,1020.5,0,0,"",99
"2013-12-15 03:33:00",10.1,10.0,0.2,0.0,0,1020.5,0,3,"",99
"2013-12-15 03:34:00",10.1,10.0,0.2,0.0,0,1020.6,1,3,"",99
"2013-12-15 03:35:00",10.1,10.0,0.2,0.0,0,1020.7,0,1,"",99
"2013-12-15 03:36:00",10.1,10.0,0.2,0.0,0,1020.7,0,1,"",99
"2013-12-15 03:37:00",10.1,10.0,0.2,0.0,0,1020.7,0,1,"",99
"2013-12-15 03:38:00",10.1,10.0,0.2,0.0,0,1020.7,0,1,"",99
"2013-12-15 03:39:00",10.1,10.0,0.2,0.0,0,1020.8,1,3,"",99
"2013-12-15 03:40:00",10.1,9.9,0.2,0.0,0,1020.8,0,1,"",99
"2013-12-15 03:41:00",10.1,9.9,0.2,0.0,0,1020.8,0,1,"",99
"2013-12-15 03:42:00",10.1,9.9,0.2,0.0,0,1020.9,0,3,"",99
"2013-12-15 03:43:00",10.1,9.9,0.2,0.0,0,1020.9,1,1,"",99
"2013-12-15 03:44:00",10.1,9.9,0.2,0.0,0,1020.9,0,1,"",99
"2013-12-15 03:45:00",10.1,9.9,0.2,0.0,0,1020.9,0,1,"",99
"2013-12-15 03:46:00",10.1,9.9,0.2,0.0,0,1020.9,0,0,"",99
"2013-12-15 03:47:00",10.0,9.9,0.2,0.0,0,1020.9,0,0,"",99
"2013-12-15 03:48:00",10.0,9.9,0.2,0.0,0,1020.9,0,0,"",99
"2013-12-15 03:49:00",10.0,9.9,0.2,0.0,0,1020.9,0,1,"",99
"2013-12-15 03:50:00",10.0,9.9,0.2,0.0,0,1021.0,0,1,"",99
"2013-12-15 03:51:00",10.0,9.9,0.2,0.0,0,1021.0,0,0,"",99
"2013-12-15 03:52:00",10.0,9.9,0.2,0.0,0,1021.0,0,0,"",99
"2013-12-15 03:53:00",10.0,9.9,0.2,0.0,0,1021.0,0,1,"",99
"2013-12-15 03:54:00",10.0,9.9,0.2,0.0,0,1021.0,0,1,"",99
"2013-12-15 03:55:00",10.0,9.9,0.2,0.0,0,1021.0,0,3,"",99
"2013-12-15 03:56:00",10.0,9.9,0.2,0.0,0,1021.0,1,4,"",99
"2013-12-15 03:57:00",10.0,9.9,0.2,0.0,0,1021.0,0,1,"",99
"2013-12-15 03:58:00",10.0,9.9,0.2,0.0,0,1021.0,0,1,"",99
"2013-12-15 03:59:00",10.0,9.9,0.2,0.0,0,1021.0,0,0,"",99
"2013-12-15 04:00:00",10.0,9.9,0.2,0.0,0,1021.0,0,1,"",99
"2013-12-15 04:01:00",10.0,9.8,0.2,0.0,0,1021.0,0,1,"",99
"2013-12-15 04:02:00",10.0,9.8,0.2,0.0,0,1020.9,0,1,"",99
"2013-12-15 04:03:00",10.0,9.8,0.2,0.0,0,1020.9,1,1,"",99
"2013-12-15 04:04:00",10.0,9.8,0.2,0.0,0,1020.9,0,1,"",99
"2013-12-15 04:05:00",9.9,9.8,0.2,0.0,0,1020.9,0,1,"",99
"2013-12-15 04:06:00",9.9,9.8,0.2,0.0,0,1020.9,0,0,"",99
"2013-12-15 04:07:00",9.9,9.8,0.2,0.0,0,1021.0,1,4,"",99
"2013-12-15 04:08:00",9.9,9.8,0.2,0.0,0,1021.0,1,3,"",99
"2013-12-15 04:09:00",9.9,9.8,0.2,0.0,0,1021.1,0,0,"",99
"2013-12-15 04:10:00",9.9,9.8,0.2,0.0,0,1021.1,0,1,"",99
"2013-12-15 04:11:00",9.9,9.8,0.2,0.0,0,1021.1,0,0,"",99
"2013-12-15 04:12:00",9.9,9.8,0.2,0.0,0,1021.1,0,1,"",99
"2013-12-15 04:13:00",9.9,9.8,0.2,0.0,0,1021.2,0,1,"",99
"2013-12-15 04:14:00",9.9,9.8,0.2,0.0,0,1021.2,0,1,"",99
"2013-12-15 04:15:00",9.9,9.6,0.2,0.0,0,1021.3,0,1,"",98
"2013-12-15 04:16:00",9.9,9.7,0.2,0.0,0,1021.3,0,0,"",99
"2013-12-15 04:17:00",9.9,9.6,0.2,0.0,0,1021.3,0,0,"",98
"2013-12-15 04:18:00",9.9,9.6,0.2,0.0,0,1021.3,0,0,"",98
"2013-12-15 04:19:00",9.9,9.6,0.2,0.0,0,1021.3,0,0,"",98
"2013-12-15 04:20:00",9.9,9.6,0.4,0.0,0,1021.3,0,1,"",98
"2013-12-15 04:21:00",9.9,9.6,0.4,0.0,0,1021.2,1,3,"",98
"2013-12-15 04:22:00",9.8,9.5,0.4,0.0,0,1021.3,1,1,"",98
"2013-12-15 04:23:00",9.8,9.7,0.4,0.0,0,1021.3,0,1,"",99
"2013-12-15 04:24:00",9.8,9.7,0.4,0.0,0,1021.3,0,0,"",99
"2013-12-15 04:25:00",9.8,9.5,0.4,0.0,0,1021.3,0,4,"",98
"2013-12-15 04:26:00",9.8,9.5,0.4,0.0,0,1021.3,3,4,"",98
"2013-12-15 04:27:00",9.8,9.5,0.4,0.0,0,1021.3,1,1,"",98
"2013-12-15 04:28:00",9.8,9.5,0.4,0.0,0,1021.3,0,0,"",98
"2013-12-15 04:29:00",9.8,9.5,0.4,0.0,0,1021.3,0,0,"",98
"2013-12-15 04:30:00",9.8,9.5,0.4,0.0,0,1021.3,0,3,"",98
"2013-12-15 04:31:00",9.8,9.5,0.4,0.0,0,1021.3,1,3,"",98
"2013-12-15 04:32:00",9.8,9.5,0.4,0.0,0,1021.4,1,3,"",98
"2013-12-15 04:33:00",9.8,9.5,0.4,0.0,0,1021.4,0,0,"",98
"2013-12-15 04:34:00",9.8,9.5,0.4,0.0,0,1021.4,0,1,"",98
"2013-12-15 04:35:00",9.7,9.4,0.4,0.0,0,1021.4,0,0,"",98
"2013-12-15 04:36:00",9.7,9.4,0.4,0.0,0,1021.4,0,1,"",98
"2013-12-15 04:37:00",9.7,9.4,0.4,0.0,0,1021.4,0,0,"",98
"2013-12-15 04:38:00",9.7,9.4,0.4,0.0,0,1021.4,0,1,"",98
"2013-12-15 04:39:00",9.7,9.4,0.4,0.0,0,1021.4,0,3,"",98
"2013-12-15 04:40:00",9.7,9.4,0.4,0.0,0,1021.4,1,1,"",98
"2013-12-15 04:41:00",9.7,9.4,0.4,0.0,0,1021.3,0,0,"",98
"2013-12-15 04:42:00",9.7,9.4,0.4,0.0,0,1021.3,0,1,"",98
"2013-12-15 04:43:00",9.6,9.3,0.4,0.0,0,1021.3,0,1,"",98
"2013-12-15 04:44:00",9.6,9.3,0.4,0.0,0,1021.4,0,1,"",98
"2013-12-15 04:45:00",9.6,9.3,0.4,0.0,0,1021.4,0,1,"",98
"2013-12-15 04:46:00",9.6,9.3,0.4,0.0,0,1021.4,0,0,"",98
"2013-12-15 04:47:00",9.6,9.3,0.4,0.0,0,1021.4,0,1,"",98
"2013-12-15 04:48:00",9.6,9.3,0.4,0.0,0,1021.4,0,1,"",98
"2013-12-15 04:49:00",9.6,9.3,0.4,0.0,0,1021.4,0,0,"",98
"2013-12-15 04:50:00",9.5,9.2,0.4,0.0,0,1021.4,0,0,"",98
"2013-12-15 04:51:00",9.5,9.2,0.4,0.0,0,1021.4,0,1,"",98
"2013-12-15 04:52:00",9.5,9.2,0.4,0.0,0,1021.5,0,0,"",98
"2013-12-15 04:53:00",9.5,9.2,0.4,0.0,0,1021.4,0,0,"",98
"2013-12-15 04:54:00",9.4,9.1,0.4,0.0,0,1021.5,0,0,"",98
"2013-12-15 04:55:00",9.4,9.1,0.4,0.0,0,1021.4,0,0,"",98
"2013-12-15 04:56:00",9.4,9.1,0.4,0.0,0,1021.5,0,1,"",98
"2013-12-15 04:57:00",9.4,8.9,0.4,0.0,0,1021.5,0,1,"",97
"2013-12-15 04:58:00",9.3,8.9,0.4,0.0,0,1021.5,0,0,"",97
"2013-12-15 04:59:00",9.3,8.9,0.4,0.0,0,1021.5,0,0,"",97
"2013-12-15 05:00:00",9.3,8.9,0.4,0.0,0,1021.5,0,0,"",97
"2013-12-15 05:01:00",9.3,8.9,0.4,0.0,0,1021.5,0,0,"",97
"2013-12-15 05:02:00",9.3,8.8,0.4,0.0,0,1021.5,0,0,"",97
"2013-12-15 05:03:00",9.3,8.8,0.4,0.0,0,1021.5,0,0,"",97
"2013-12-15 05:04:00",9.2,8.8,0.4,0.0,0,1021.5,0,0,"",97
"2013-12-15 05:05:00",9.2,8.8,0.4,0.0,0,1021.4,0,0,"",97
"2013-12-15 05:06:00",9.2,8.8,0.4,0.0,0,1021.4,0,0,"",97
"2013-12-15 05:07:00",9.2,8.7,0.4,0.0,0,1021.4,0,0,"",97
"2013-12-15 05:08:00",9.2,8.7,0.4,0.0,0,1021.4,0,0,"",97
"2013-12-15 05:09:00",9.1,8.7,0.4,0.0,0,1021.4,0,0,"",97
"2013-12-15 05:10:00",9.1,8.7,0.4,0.0,0,1021.4,0,0,"",97
"2013-12-15 05:11:00",9.1,8.6,0.4,0.0,0,1021.4,0,0,"",97
"2013-12-15 05:12:00",9.1,8.6,0.4,0.0,0,1021.4,0,0,"",97
"2013-12-15 05:13:00",9.0,8.6,0.4,0.0,0,1021.4,0,0,"",97
"2013-12-15 05:14:00",9.0,8.5,0.4,0.0,0,1021.4,0,0,"",97
"2013-12-15 05:15:00",9.0,8.5,0.4,0.0,0,1021.4,0,0,"",97
"2013-12-15 05:16:00",8.9,8.5,0.4,0.0,0,1021.5,0,0,"",97
"2013-12-15 05:17:00",8.9,8.5,0.4,0.0,0,1021.4,0,0,"",97
"2013-12-15 05:18:00",8.9,8.5,0.4,0.0,0,1021.4,0,0,"",97
"2013-12-15 05:19:00",8.9,8.4,0.4,0.0,0,1021.5,0,0,"",97
"2013-12-15 05:20:00",8.8,8.4,0.4,0.0,0,1021.5,0,0,"",97
"2013-12-15 05:21:00",8.8,8.4,0.4,0.0,0,1021.4,0,0,"",97
"2013-12-15 05:22:00",8.8,8.3,0.4,0.0,0,1021.5,0,0,"",97
"2013-12-15 05:23:00",8.8,8.3,0.4,0.0,0,1021.5,0,0,"",97
"2013-12-15 05:24:00",8.7,8.3,0.4,0.0,0,1021.5,0,0,"",97
"2013-12-15 05:25:00",8.7,8.1,0.4,0.0,0,1021.5,0,0,"",96
"2013-12-15 05:26:00",8.7,8.1,0.4,0.0,0,1021.5,0,0,"",96
"2013-12-15 05:27:00",8.6,8.0,0.4,0.0,0,1021.5,0,0,"",96
"2013-12-15 05:28:00",8.6,8.0,0.4,0.0,0,1021.5,0,0,"",96
"2013-12-15 05:29:00",8.6,8.0,0.4,0.0,0,1021.5,0,0,"",96
"2013-12-15 05:30:00",8.5,7.9,0.4,0.0,0,1021.5,0,0,"",96
"2013-12-15 05:31:00",8.5,7.9,0.4,0.0,0,1021.5,0,0,"",96
"2013-12-15 05:32:00",8.4,7.8,0.4,0.0,0,1021.5,0,0,"",96
"2013-12-15 05:33:00",8.4,7.8,0.4,0.0,0,1021.5,0,0,"",96
"2013-12-15 05:34:00",8.4,7.8,0.4,0.0,0,1021.5,0,0,"",96
"2013-12-15 05:35:00",8.3,7.6,0.4,0.0,0,1021.5,0,0,"",95
"2013-12-15 05:36:00",8.3,7.6,0.4,0.0,0,1021.4,0,0,"",95
"2013-12-15 05:37:00",8.3,7.5,0.4,0.0,0,1021.4,0,0,"",95
"2013-12-15 05:38:00",8.2,7.5,0.4,0.0,0,1021.4,0,0,"",95
"2013-12-15 05:39:00",8.2,7.5,0.4,0.0,0,1021.4,0,0,"",95
"2013-12-15 05:40:00",8.2,7.4,0.4,0.0,0,1021.3,0,0,"",95
"2013-12-15 05:41:00",8.1,7.4,0.4,0.0,0,1021.4,0,0,"",95
"2013-12-15 05:42:00",8.1,7.1,0.4,0.0,0,1021.4,0,0,"",93
"2013-12-15 05:43:00",8.0,7.1,0.4,0.0,0,1021.4,0,0,"",94
"2013-12-15 05:44:00",8.0,7.1,0.4,0.0,0,1021.4,0,0,"",94
"2013-12-15 05:45:00",7.9,7.0,0.4,0.0,0,1021.3,0,0,"",94
"2013-12-15 05:46:00",7.9,7.2,0.4,0.0,0,1021.4,0,0,"",95
"2013-12-15 05:47:00",7.9,7.1,0.4,0.0,0,1021.3,0,0,"",95
"2013-12-15 05:48:00",7.8,7.1,0.4,0.0,0,1021.4,0,0,"",95
"2013-12-15 05:49:00",7.8,6.9,0.4,0.0,0,1021.4,0,0,"",94
"2013-12-15 05:50:00",7.8,6.9,0.4,0.0,0,1021.4,0,0,"",94
"2013-12-15 05:51:00",7.7,6.8,0.4,0.0,0,1021.4,0,0,"",94
"2013-12-15 05:52:00",7.7,6.8,0.4,0.0,0,1021.4,0,0,"",94
"2013-12-15 05:53:00",7.7,6.8,0.4,0.0,0,1021.4,0,0,"",94
"2013-12-15 05:54:00",7.6,6.7,0.4,0.0,0,1021.4,0,0,"",94
"2013-12-15 05:55:00",7.6,6.7,0.4,0.0,0,1021.4,0,0,"",94
"2013-12-15 05:56:00",7.5,6.6,0.4,0.0,0,1021.4,0,0,"",94
"2013-12-15 05:57:00",7.5,6.4,0.4,0.0,0,1021.4,0,0,"",93
"2013-12-15 05:58:00",7.4,6.4,0.4,0.0,0,1021.4,0,0,"",93
"2013-12-15 05:59:00",7.4,6.3,0.4,0.0,0,1021.4,0,0,"",93
"2013-12-15 06:00:00",7.3,6.3,0.4,0.0,0,1021.4,0,0,"",93
"2013-12-15 06:01:00",7.3,6.2,0.4,0.0,0,1021.4,0,0,"",93
"2013-12-15 06:02:00",7.2,6.1,0.4,0.0,0,1021.4,0,0,"",93
"2013-12-15 06:03:00",7.2,6.1,0.4,0.0,0,1021.4,0,0,"",93
"2013-12-15 06:04:00",7.1,6.1,0.4,0.0,0,1021.5,0,0,"",93
"2013-12-15 06:05:00",7.1,6.0,0.4,0.0,0,1021.5,0,0,"",93
"2013-12-15 06:06:00",7.0,6.0,0.4,0.0,0,1021.5,0,0,"",93
"2013-12-15 06:07:00",7.0,5.9,0.4,0.0,0,1021.5,0,0,"",93
"2013-12-15 06:08:00",6.9,5.9,0.4,0.0,0,1021.5,0,0,"",93
"2013-12-15 06:09:00",6.9,5.9,0.4,0.0,0,1021.5,0,0,"",93
"2013-12-15 06:10:00",6.9,5.8,0.4,0.0,0,1021.5,0,0,"",93
"2013-12-15 06:11:00",6.8,5.8,0.4,0.0,0,1021.5,0,0,"",93
"2013-12-15 06:12:00",6.8,5.8,0.4,0.0,0,1021.5,0,0,"",93
"2013-12-15 06:13:00",6.8,5.7,0.4,0.0,0,1021.6,0,0,"",93
"2013-12-15 06:14:00",6.8,5.7,0.4,0.0,0,1021.6,0,0,"",93
"2013-12-15 06:15:00",6.7,5.8,0.4,0.0,0,1021.7,0,0,"",94
"2013-12-15 06:16:00",6.7,5.8,0.4,0.0,0,1021.8,0,0,"",94
"2013-12-15 06:17:00",6.7,5.8,0.4,0.0,0,1021.8,0,0,"",94
"2013-12-15 06:18:00",6.7,5.8,0.4,0.0,0,1021.8,0,0,"",94
"2013-12-15 06:19:00",6.6,5.7,0.4,0.0,0,1021.8,0,0,"",94
"2013-12-15 06:20:00",6.6,5.7,0.4,0.0,0,1021.8,0,0,"",94
"2013-12-15 06:21:00",6.5,5.6,0.4,0.0,0,1021.8,0,0,"",94
"2013-12-15 06:22:00",6.5,5.5,0.4,0.0,0,1021.8,0,0,"",93
"2013-12-15 06:23:00",6.5,5.4,0.4,0.0,0,1021.8,0,0,"",93
"2013-12-15 06:24:00",6.4,5.4,0.4,0.0,0,1021.8,0,0,"",93
"2013-12-15 06:25:00",6.4,5.4,0.4,0.0,0,1021.8,0,0,"",93
"2013-12-15 06:26:00",6.4,5.3,0.4,0.0,0,1021.8,0,0,"",93
"2013-12-15 06:27:00",6.3,5.3,0.4,0.0,0,1021.8,0,0,"",93
"2013-12-15 06:28:00",6.3,5.2,0.4,0.0,0,1021.8,0,0,"",93
"2013-12-15 06:29:00",6.2,5.2,0.4,0.0,0,1021.8,0,0,"",93
"2013-12-15 06:30:00",6.2,5.1,0.4,0.0,0,1021.8,0,0,"",93
"2013-12-15 06:31:00",6.2,5.1,0.4,0.0,0,1021.8,0,0,"",93
"2013-12-15 06:32:00",6.1,5.1,0.4,0.0,0,1021.8,0,0,"",93
"2013-12-15 06:33:00",6.1,5.0,0.4,0.0,0,1021.7,0,0,"",93
"2013-12-15 06:34:00",6.0,5.0,0.4,0.0,0,1021.7,0,0,"",93
"2013-12-15 06:35:00",6.0,5.0,0.4,0.0,0,1021.7,0,0,"",93
"2013-12-15 06:36:00",6.0,4.9,0.4,0.0,0,1021.7,0,0,"",93
"2013-12-15 06:37:00",5.9,4.9,0.4,0.0,0,1021.7,0,0,"",93
"2013-12-15 06:38:00",5.9,5.0,0.4,0.0,0,1021.7,0,0,"",94
"2013-12-15 06:39:00",5.8,4.8,0.4,0.0,0,1021.7,0,0,"",93
"2013-12-15 06:40:00",5.8,4.8,0.4,0.0,0,1021.7,0,0,"",93
"2013-12-15 06:41:00",5.8,4.7,0.4,0.0,0,1021.6,0,0,"",93
"2013-12-15 06:42:00",5.8,4.7,0.4,0.0,0,1021.6,0,0,"",93
"2013-12-15 06:43:00",5.7,4.8,0.4,0.0,0,1021.6,0,0,"",94
"2013-12-15 06:44:00",5.7,4.8,0.4,0.0,0,1021.6,0,0,"",94
"2013-12-15 06:45:00",5.7,4.8,0.4,0.0,0,1021.6,0,0,"",94
"2013-12-15 06:46:00",5.6,4.7,0.4,0.0,0,1021.6,0,0,"",94
"2013-12-15 06:47:00",5.6,4.7,0.4,0.0,0,1021.6,0,0,"",94
"2013-12-15 06:48:00",5.6,4.7,0.4,0.0,0,1021.6,0,0,"",94
"2013-12-15 06:49:00",5.5,4.5,0.4,0.0,0,1021.5,0,0,"",93
"2013-12-15 06:50:00",5.5,4.4,0.4,0.0,0,1021.6,0,0,"",93
"2013-12-15 06:51:00",5.4,4.6,0.4,0.0,0,1021.6,0,0,"",95
"2013-12-15 06:52:00",5.4,4.5,0.4,0.0,0,1021.6,0,0,"",94
"2013-12-15 06:53:00",5.4,4.5,0.4,0.0,0,1021.5,0,0,"",94